Regional Weather Roundup
Issued by NWS

Home | Current Version | Previous Version | Graphics & Text | Print | Product List | Glossary On
Versions: 1 2 3 4 5 6 7 8 9 10 11 12 13 14 15 16 17 18 19 20 21 22 23 24 25 26 27 28 29 30 31 32 33 34 35 36 37 38 39 40 41 42 43 44 45 46 47 48 49 50
000
ASUS43 KFSD 202010
RWRSD

WEATHER ROUNDUP FOR SOUTH DAKOTA
NATIONAL WEATHER SERVICE SIOUX FALLS SD
200 PM CST SAT DEC 20 2014

NOTE: "FAIR" INDICATES FEW OR NO CLOUDS BELOW 12,000 FEET WITH NO
SIGNIFICANT WEATHER AND/OR OBSTRUCTIONS TO VISIBILITY.


SDZ001>005-009-010-012>017-202100-
NORTHWEST AND NORTH CENTRAL SOUTH DAKOTA

CITY           SKY/WX    TMP DP  RH WIND       PRES   REMARKS
BUFFALO          N/A     47  25  42 NW14      29.79F
FAITH            N/A     46  30  53 W12       29.86F
MOBRIDGE       CLOUDY    30  27  88 SE13      29.85F WCI  20
$$

SDZ012>016-024>037-041>051-057-063-072>074-202100-
SOUTHWEST AND SOUTH CENTRAL SOUTH DAKOTA

CITY           SKY/WX    TMP DP  RH WIND       PRES   REMARKS
RAPID CTY ARPT PTSUNNY   50  27  40 N10       29.88F
PIERRE         CLOUDY    27  24  89 CALM      29.90F
CUSTER         PTSUNNY   45  17  32 VRB5      29.87F
ELLSWORTH AFB  MOSUNNY   49  27  43 N10       29.88F
PHILIP         CLOUDY    45  28  51 W7        29.89F
PINE RIDGE     CLOUDY    44  27  51 W7        29.92S
SPEARFISH      FAIR      46  23  39 W7        29.89F
WINNER         FAIR      36  26  67 SW5       29.91F
$$

SDZ004>011-016>023-039-040-202100-
NORTHEAST SOUTH DAKOTA

CITY           SKY/WX    TMP DP  RH WIND       PRES   REMARKS
ABERDEEN       CLOUDY    28  26  92 S12       29.96F FOG     WCI  18
WATERTOWN      CLOUDY    30  28  92 S14       29.96F FOG     WCI  19
SISSETON         N/A     31  29  92 S12       29.97F WCI  22
$$

SDZ017-020-022-023-036>040-048>070-202100-
SOUTHEAST SOUTH DAKOTA

CITY           SKY/WX    TMP DP  RH WIND       PRES   REMARKS
SIOUX FALLS    CLOUDY    31  29  92 S12       30.02F WCI  22
HURON          CLOUDY    28  27  96 S7        29.98F FOG     WCI  21
CHAMBERLAIN    CLOUDY    26  25  97 SE7       29.92F WCI  18
MITCHELL       CLOUDY    31  30  96 S15       29.99F FOG     WCI  20
YANKTON        CLOUDY    32  28  86 S8        30.02F WCI  25
$$

ABBREVIATIONS USED IN REMARKS
   TC - TEMPERATURE IN CELSIUS
  WCI - WIND CHILL INDEX
   HX - HEAT INDEX
  VSB - VISIBILITY




USA.gov is the U.S. government's official web portal to all federal, state and local government web resources and services.